Change the Weather History Date:

Friday, February 15, 2013

  Actual Average Record
Temperature  
Mean Temperature 34 °F -  
Max Temperature 39 °F 36 °F 49 °F (1982)
Min Temperature 30 °F 17 °F -21 °F (1987)
Degree Days  
Heating Degree Days 30    
Moisture  
Dew Point 28 °F    
Average Humidity 76    
Maximum Humidity 96    
Minimum Humidity 53    
Precipitation  
Precipitation 0.03 in - - ()
Sea Level Pressure  
Sea Level Pressure 29.93 in    
Wind  
Wind Speed 8 mph (West)    
Max Wind Speed 15 mph    
Max Gust Speed 20 mph    
Visibility 8 miles    
Events Rain , Snow    
Averages and records for this station are not official NWS values.
T = Trace of Precipitation, MM = Missing Value Source: NWS Daily Summary

Daily Weather History Graph

Daily Weather History Graph

Search for Another Location

Airport or City:

Trip Planner

Search our weather history database for the weather conditions in past years. The results will help you decide how hot, cold, wet, or windy it might be!

Date:

Astronomy

Feb. 15, 2013 Rise Set
Actual Time 6:59 AM EST 5:32 PM EST
Civil Twilight 6:29 AM EST 6:02 PM EST
Nautical Twilight 5:56 AM EST 6:35 PM EST
Astronomical Twilight 5:23 AM EST 7:08 PM EST
Moon 9:23 AM EST (2/15) 11:43 PM EST (2/15)
Length of Visible Light 11h 32m
Length of Day
10h 33m
Waxing Crescent, 30% of the Moon is Illuminated
Feb 15
Waxing Crescent
Feb 17
First Quarter
Feb 25
Full
Mar 4
Last Quarter
Mar 11
New

Hourly Weather History & Observations

Time (EST) Temp. Windchill Dew Point Humidity Pressure Visibility Wind Dir Wind Speed Gust Speed Precip Events Conditions
12:29 AM 33.1 °F 27.7 °F 32.0 °F 96% 29.86 in 3.0 mi East 5.8 mph - 0.01 in Snow Light Snow
12:47 AM 33.8 °F 26.4 °F 32.0 °F 93% 29.86 in 2.5 mi ESE 9.2 mph - 0.02 in Snow Light Snow
12:53 AM 33.1 °F 25.5 °F 32.0 °F 96% 29.87 in 2.5 mi East 9.2 mph - 0.03 in Snow Light Snow
1:01 AM 34.0 °F 28.0 °F 32.0 °F 92% 29.85 in 5.0 mi ESE 6.9 mph - 0.00 in Rain Light Rain
1:08 AM 34.0 °F 27.2 °F 32.0 °F 92% 29.85 in 6.0 mi ESE 8.1 mph - 0.00 in   Overcast
1:53 AM 34.0 °F 28.8 °F 32.0 °F 92% 29.86 in 6.0 mi East 5.8 mph - 0.00 in   Overcast
2:53 AM 35.1 °F 30.1 °F 30.9 °F 85% 29.85 in 7.0 mi East 5.8 mph - 0.00 in Rain Light Rain
3:53 AM 35.1 °F 30.1 °F 30.9 °F 85% 29.84 in 8.0 mi ENE 5.8 mph - 0.00 in   Overcast
4:53 AM 34.0 °F - 30.0 °F 85% 29.84 in 8.0 mi Calm Calm - N/A   Scattered Clouds
5:53 AM 37.0 °F 31.6 °F 30.0 °F 76% 29.86 in 10.0 mi WSW 6.9 mph - 0.00 in   Overcast
6:53 AM 35.1 °F 32.2 °F 30.9 °F 85% 29.86 in 9.0 mi ESE 3.5 mph - N/A   Overcast
7:53 AM 36.0 °F - 30.0 °F 79% 29.89 in 8.0 mi Calm Calm - N/A   Overcast
8:53 AM 37.9 °F 31.5 °F 28.9 °F 70% 29.92 in 10.0 mi West 9.2 mph 19.6 mph N/A   Overcast
9:53 AM 36.0 °F 28.5 °F 28.9 °F 76% 29.93 in 10.0 mi West 10.4 mph - N/A   Overcast
10:53 AM 39.0 °F 31.0 °F 24.1 °F 55% 29.94 in 10.0 mi West 13.8 mph - N/A   Overcast
11:53 AM 39.0 °F 31.8 °F 23.0 °F 53% 29.95 in 10.0 mi WSW 11.5 mph - N/A   Overcast
12:53 PM 37.9 °F 30.0 °F 23.0 °F 55% 29.94 in 10.0 mi West 12.7 mph - N/A   Overcast
1:53 PM 37.9 °F 29.6 °F 24.1 °F 57% 29.95 in 10.0 mi West 13.8 mph - N/A   Overcast
2:53 PM 37.9 °F 30.5 °F 24.1 °F 57% 29.95 in 10.0 mi West 11.5 mph - N/A   Overcast
3:53 PM 37.9 °F 29.2 °F 23.0 °F 55% 29.97 in 10.0 mi West 15.0 mph - N/A   Overcast
4:53 PM 35.1 °F 25.5 °F 26.1 °F 70% 29.98 in 10.0 mi NW 15.0 mph - 0.00 in   Overcast
5:53 PM 33.1 °F 28.7 °F 26.1 °F 75% 29.98 in 10.0 mi NNW 4.6 mph - N/A   Mostly Cloudy
6:53 PM 32.0 °F 23.0 °F 26.1 °F 79% 30.00 in 10.0 mi NW 11.5 mph - N/A   Overcast
7:53 PM 32.0 °F 24.8 °F 26.1 °F 79% 30.01 in 10.0 mi WNW 8.1 mph - N/A   Overcast
8:53 PM 30.9 °F 22.8 °F 25.0 °F 79% 30.01 in 10.0 mi WNW 9.2 mph - N/A   Overcast
9:53 PM 30.9 °F 26.2 °F 24.1 °F 76% 30.03 in 9.0 mi West 4.6 mph - 0.00 in   Overcast
10:53 PM 30.9 °F 23.5 °F 23.0 °F 72% 30.03 in 10.0 mi WNW 8.1 mph - 0.00 in   Overcast
11:53 PM 30.0 °F 22.4 °F 21.9 °F 72% 30.03 in 10.0 mi West 8.1 mph - N/A   Mostly Cloudy